Home   Weather   Chatham-Kent   Past weeks
Flag for Canada

Past Weather in Chatham-Kent, Ontario, Canada — Yesterday and Last 2 Weeks

Now
49 °F

Cool.


Feels Like: 48 °F
Forecast: 52 / 47 °F
Wind: 3 mph from Northwest

Location: Erieau

Current Time: Oct 14, 2019 at 2:15:54 am

Latest Report: Oct 14, 2019 at 1:00 am


Visibility: N/A

Pressure: 29.88 "Hg

Humidity: 65%

Dew Point: 37 °F

Location of Chatham-KentLocation

Past Weather in Chatham-Kent — Graph

°F

Chatham-Kent Temperature Yesterday

Maximum temperature yesterday: 63 °F (at 5:00 pm)
Minimum temperature yesterday: 49 °F (at 11:00 pm)
Average temperature yesterday: 57 °F

High & Low Weather Summary for the Past Weeks

 TemperatureHumidityPressure
High77 °F (Oct 1, 1:00 pm)100% (Oct 1, 12:00 am)30.39 "Hg (Oct 1, 12:00 am)
Low45 °F (Oct 12, 8:00 am)42% (Oct 13, 9:00 pm)29.78 "Hg (Oct 13, 5:00 pm)
Average61 °F77%30.09 "Hg
* Reported Sep 29 12:00 am — Oct 14 12:00 am, Chatham-Kent. Weather by CustomWeather, © 2019

Note: Actual official high and low records may vary slightly from our data, if they occured in-between our weather recording intervals... More about our weather records

Advertising

Chatham-Kent Weather History for the Previous 24 Hours

Scroll right to see more
 ConditionsComfort  
Time TempWeatherWind HumidityBarometerVisibility
12:00 am
Mon, Oct 14
50 °FCool.5 mph62%29.87 "HgN/A
11:00 pm
Sun, Oct 13
49 °FCool.3 mph66%29.87 "HgN/A
10:00 pm51 °FCool.7 mph63%29.85 "HgN/A
9:00 pm59 °FRefreshingly cool.6 mph42%29.83 "HgN/A
8:00 pm61 °FRefreshingly cool.7 mph50%29.81 "HgN/A
7:00 pm63 °FMild.13 mph52%29.79 "HgN/A
6:00 pm63 °FMild.8 mph58%29.78 "HgN/A
5:00 pm63 °FMild.22 mph50%29.78 "HgN/A
4:00 pm62 °FRefreshingly cool.21 mph53%29.79 "HgN/A
3:00 pm61 °FRefreshingly cool.22 mph52%29.81 "HgN/A
2:00 pm60 °FRefreshingly cool.22 mph56%29.84 "HgN/A
1:00 pm58 °FRefreshingly cool.22 mph60%29.86 "HgN/A
12:00 pm57 °FCool.20 mph64%29.89 "HgN/A
11:00 am56 °FCool.21 mph66%29.90 "HgN/A
10:00 am55 °FCool.20 mph64%29.91 "HgN/A
9:00 am55 °FCool.23 mph64%29.93 "HgN/A
8:00 am54 °FCool.21 mph66%29.93 "HgN/A
7:00 am54 °FCool.15 mph65%29.95 "HgN/A
6:00 am54 °FCool.16 mph65%29.95 "HgN/A
5:00 am53 °FCool.14 mph71%29.96 "HgN/A
4:00 am54 °FCool.16 mph64%29.96 "HgN/A
3:00 am55 °FCool.20 mph60%29.97 "HgN/A
2:00 am55 °FCool.16 mph63%29.98 "HgN/A
Weather by CustomWeather, © 2019

See weather overview